,,,PA_Meas_PMT16A,,PR_Meas_QMR101_102,,RH_Meas_QMH101,,SR_Meas_QMS101,,TA_Meas_QMH101,,GenWind,,GenWind,
date,time,status,PA,status,PR,status,RH,status,SR,status,TA,status,DirAvg,status,SpdAvg,
2011-06-17, 00:00:04,VALID,1004.96,VALID,0,INVALID,163.655,VALID,0.100563,VALID,25.2202,VALID,285,VALID,0,
2011-06-17, 00:01:04,VALID,1004.96,VALID,0,INVALID,163.67,VALID,0,VALID,25.2202,VALID,231,VALID,0,
2011-06-17, 00:02:04,VALID,1004.93,VALID,0,INVALID,163.639,VALID,0,VALID,25.2202,VALID,324,VALID,0,
2011-06-17, 00:03:04,VALID,1004.94,VALID,0,INVALID,163.662,VALID,0,VALID,25.1794,VALID,282,VALID,0,
2011-06-17, 00:04:04,VALID,1004.96,VALID,0,INVALID,163.647,VALID,0,VALID,25.2007,VALID,249,VALID,0,
2011-06-17, 00:05:04,VALID,1004.98,VALID,0,INVALID,163.662,VALID,0,VALID,25.1813,VALID,320,VALID,0,
2011-06-17, 00:06:04,VALID,1005.02,VALID,0,INVALID,163.655,VALID,0,VALID,25.2007,VALID,303,VALID,0,
2011-06-17, 00:07:04,VALID,1005.1,VALID,0,INVALID,163.647,VALID,0,VALID,25.2007,VALID,270,VALID,0,
2011-06-17, 00:08:04,VALID,1005.15,VALID,0,INVALID,163.67,VALID,0,VALID,25.1988,VALID,242,VALID,0,
2011-06-17, 00:09:04,VALID,1005.15,VALID,0.5,INVALID,163.647,VALID,0.100563,VALID,25.1988,VALID,288,VALID,0,
2011-06-17, 00:10:04,VALID,1005.1,VALID,1,INVALID,163.67,VALID,0,VALID,25.2221,VALID,306,VALID,0,
2011-06-17, 00:11:04,VALID,1005.04,VALID,0,INVALID,163.67,VALID,0.100563,VALID,25.1442,VALID,357,VALID,0,
2011-06-17, 00:12:04,VALID,1005.02,VALID,0,INVALID,163.685,VALID,0.100563,VALID,25.0431,VALID,354,VALID,0,
2011-06-17, 00:13:04,VALID,1005.03,VALID,0.5,INVALID,163.731,VALID,0.100563,VALID,25.006,VALID,342,VALID,0,
2011-06-17, 00:14:04,VALID,1005,VALID,0.5,INVALID,163.716,VALID,0.100563,VALID,24.969,VALID,349,VALID,0,
2011-06-17, 00:15:04,VALID,1004.99,VALID,0,INVALID,163.701,VALID,0.100563,VALID,24.9087,VALID,349,VALID,0,
2011-06-17, 00:16:04,VALID,1004.96,VALID,0.5,INVALID,163.662,VALID,0.100563,VALID,24.8484,VALID,354,VALID,0,
2011-06-17, 00:17:04,VALID,1004.93,VALID,0.5,INVALID,163.678,VALID,0.100563,VALID,24.8503,VALID,355,VALID,0,
2011-06-17, 00:18:04,VALID,1004.92,VALID,0,INVALID,163.678,VALID,0,VALID,24.8308,VALID,350,VALID,0,
2011-06-17, 00:19:04,VALID,1004.93,VALID,0,INVALID,163.708,VALID,0.100563,VALID,24.8113,VALID,354,VALID,0,
2011-06-17, 00:20:04,VALID,1004.9,VALID,0.5,INVALID,163.647,VALID,0.100563,VALID,24.7919,VALID,349,VALID,0,
2011-06-17, 00:21:04,VALID,1004.88,VALID,0,INVALID,163.67,VALID,0,VALID,24.7919,VALID,353,VALID,0,
2011-06-17, 00:22:04,VALID,1004.86,VALID,0,INVALID,163.701,VALID,0.100563,VALID,24.7919,VALID,354,VALID,0,
2011-06-17, 00:23:04,VALID,1004.82,VALID,0,INVALID,163.678,VALID,0,VALID,24.7919,VALID,354,VALID,0,
2011-06-17, 00:24:04,VALID,1004.78,VALID,0,INVALID,163.678,VALID,0.100563,VALID,24.8113,VALID,355,VALID,0,
2011-06-17, 00:25:04,VALID,1004.77,VALID,0,INVALID,163.662,VALID,0,VALID,24.8113,VALID,1,VALID,0,
2011-06-17, 00:26:04,VALID,1004.74,VALID,0.5,INVALID,163.685,VALID,0,VALID,24.8308,VALID,340,VALID,0,
2011-06-17, 00:27:04,VALID,1004.72,VALID,0,INVALID,163.693,VALID,0.100563,VALID,24.8095,VALID,352,VALID,0,
2011-06-17, 00:28:04,VALID,1004.68,VALID,0,INVALID,163.662,VALID,0.100563,VALID,24.8113,VALID,353,VALID,0,
2011-06-17, 00:29:04,VALID,1004.63,VALID,0,INVALID,163.701,VALID,0.100563,VALID,24.8308,VALID,352,VALID,0,
2011-06-17, 00:30:04,VALID,1004.64,VALID,0,INVALID,163.693,VALID,0,VALID,24.8327,VALID,354,VALID,0,
2011-06-17, 00:31:04,VALID,1004.64,VALID,0,INVALID,163.685,VALID,0,VALID,24.7919,VALID,341,VALID,0,
2011-06-17, 00:32:04,VALID,1004.62,VALID,0,INVALID,163.662,VALID,0,VALID,24.7724,VALID,357,VALID,0,
2011-06-17, 00:33:04,VALID,1004.64,VALID,0,INVALID,163.708,VALID,0,VALID,24.7937,VALID,346,VALID,0,
2011-06-17, 00:34:04,VALID,1004.64,VALID,0,INVALID,163.693,VALID,0,VALID,24.7743,VALID,360,VALID,0,
2011-06-17, 00:35:04,VALID,1004.63,VALID,0,INVALID,163.685,VALID,0,VALID,24.7743,VALID,353,VALID,0,
2011-06-17, 00:36:04,VALID,1004.62,VALID,0,INVALID,163.678,VALID,0,VALID,24.7919,VALID,3,VALID,0,
2011-06-17, 00:37:04,VALID,1004.61,VALID,0,INVALID,163.693,VALID,0,VALID,24.7937,VALID,349,VALID,0,
2011-06-17, 00:38:04,VALID,1004.6,VALID,0,INVALID,163.67,VALID,0,VALID,24.7743,VALID,353,VALID,0,
2011-06-17, 00:39:04,VALID,1004.57,VALID,0,INVALID,163.662,VALID,0,VALID,24.7529,VALID,351,VALID,0,
2011-06-17, 00:40:04,VALID,1004.58,VALID,0,INVALID,163.701,VALID,0,VALID,24.7956,VALID,325,VALID,0,
2011-06-17, 00:41:04,VALID,1004.58,VALID,0,INVALID,163.731,VALID,0,VALID,24.7937,VALID,356,VALID,0,
2011-06-17, 00:42:04,VALID,1004.56,VALID,0,INVALID,163.701,VALID,0,VALID,24.7937,VALID,336,VALID,0,
2011-06-17, 00:43:04,VALID,1004.56,VALID,0,INVALID,163.701,VALID,0,VALID,24.7937,VALID,5,VALID,0,
2011-06-17, 00:44:04,VALID,1004.53,VALID,0,INVALID,163.678,VALID,0,VALID,24.8132,VALID,316,VALID,0,
2011-06-17, 00:45:04,VALID,1004.49,VALID,0,INVALID,163.693,VALID,0,VALID,24.79,VALID,296,VALID,0,
2011-06-17, 00:46:04,VALID,1004.45,VALID,0,INVALID,163.678,VALID,0.100563,VALID,24.8308,VALID,302,VALID,0,
2011-06-17, 00:47:04,VALID,1004.45,VALID,0,INVALID,163.685,VALID,0.100563,VALID,24.8095,VALID,345,VALID,0,
2011-06-17, 00:48:04,VALID,1004.41,VALID,0,INVALID,163.678,VALID,0.100563,VALID,24.8308,VALID,348,VALID,0,
2011-06-17, 00:49:04,VALID,1004.4,VALID,0,INVALID,163.662,VALID,0.100563,VALID,24.8522,VALID,1,VALID,0,
2011-06-17, 00:50:04,VALID,1004.39,VALID,0,INVALID,163.662,VALID,0,VALID,24.8289,VALID,293,VALID,0,
2011-06-17, 00:51:04,VALID,1004.35,VALID,0,INVALID,163.685,VALID,0.100563,VALID,24.8308,VALID,342,VALID,0,
2011-06-17, 00:52:04,VALID,1004.37,VALID,0,INVALID,163.693,VALID,0,VALID,24.8503,VALID,294,VALID,0,
2011-06-17, 00:53:04,VALID,1004.3,VALID,0,INVALID,163.685,VALID,0,VALID,24.8289,VALID,305,VALID,0,
2011-06-17, 00:54:04,VALID,1004.3,VALID,0,INVALID,163.701,VALID,0.100563,VALID,24.8095,VALID,291,VALID,0,
2011-06-17, 00:55:04,VALID,1004.34,VALID,0,INVALID,163.655,VALID,0.100563,VALID,24.8095,VALID,343,VALID,0,
2011-06-17, 00:56:04,VALID,1004.3,VALID,0,INVALID,163.708,VALID,0,VALID,24.8113,VALID,296,VALID,0,
2011-06-17, 00:57:04,VALID,1004.3,VALID,0,INVALID,163.67,VALID,0.100563,VALID,24.8095,VALID,355,VALID,0,
2011-06-17, 00:58:04,VALID,1004.32,VALID,0,INVALID,163.701,VALID,0.100563,VALID,24.8113,VALID,342,VALID,0,
2011-06-17, 00:59:04,VALID,1004.25,VALID,0,INVALID,163.685,VALID,0,VALID,24.7705,VALID,342,VALID,0,
2011-06-17, 01:00:04,VALID,1004.22,VALID,0,INVALID,163.67,VALID,0,VALID,24.8346,VALID,289,VALID,0,
2011-06-17, 01:01:04,VALID,1004.17,VALID,0,INVALID,163.655,VALID,0,VALID,24.7919,VALID,318,VALID,0,
2011-06-17, 01:02:04,VALID,1004.14,VALID,0,INVALID,163.693,VALID,0,VALID,24.7919,VALID,333,VALID,0,
2011-06-17, 01:03:04,VALID,1004.11,VALID,0,INVALID,163.701,VALID,0,VALID,24.7919,VALID,325,VALID,0,
2011-06-17, 01:04:04,VALID,1004.09,VALID,0,INVALID,163.685,VALID,0,VALID,24.8132,VALID,7,VALID,0,
2011-06-17, 01:05:04,VALID,1004.12,VALID,0,INVALID,163.685,VALID,0,VALID,24.7724,VALID,333,VALID,0,
2011-06-17, 01:06:04,VALID,1004.11,VALID,0,INVALID,163.662,VALID,0,VALID,24.7743,VALID,334,VALID,0,
2011-06-17, 01:07:04,VALID,1004.15,VALID,0,INVALID,163.693,VALID,0,VALID,24.7724,VALID,294,VALID,0,
2011-06-17, 01:08:04,VALID,1004.17,VALID,0,INVALID,163.701,VALID,0,VALID,24.8151,VALID,343,VALID,0,
2011-06-17, 01:09:04,VALID,1004.17,VALID,0,INVALID,163.708,VALID,0,VALID,24.7743,VALID,334,VALID,0,
2011-06-17, 01:10:04,VALID,1004.15,VALID,0,INVALID,163.693,VALID,0,VALID,24.7316,VALID,333,VALID,0,
2011-06-17, 01:11:04,VALID,1004.15,VALID,0,INVALID,163.678,VALID,0,VALID,24.7743,VALID,357,VALID,0,
2011-06-17, 01:12:04,VALID,1004.14,VALID,0,INVALID,163.67,VALID,0,VALID,24.7743,VALID,339,VALID,0,
2011-06-17, 01:13:04,VALID,1004.14,VALID,0,INVALID,163.655,VALID,0,VALID,24.7743,VALID,346,VALID,0,
2011-06-17, 01:14:04,VALID,1004.09,VALID,0,INVALID,163.693,VALID,0,VALID,24.7529,VALID,346,VALID,0,
2011-06-17, 01:15:04,VALID,1004.05,VALID,0,INVALID,163.708,VALID,0,VALID,24.7548,VALID,356,VALID,0,
2011-06-17, 01:16:04,VALID,1004.05,VALID,0,INVALID,163.685,VALID,0,VALID,24.7335,VALID,350,VALID,0,
2011-06-17, 01:17:04,VALID,1004.03,VALID,0,INVALID,163.685,VALID,0,VALID,24.7548,VALID,352,VALID,0,
2011-06-17, 01:18:04,VALID,1003.99,VALID,0,INVALID,163.647,VALID,0,VALID,24.7761,VALID,353,VALID,0,
2011-06-17, 01:19:04,VALID,1003.99,VALID,0,INVALID,163.701,VALID,0,VALID,24.7743,VALID,327,VALID,0,
2011-06-17, 01:20:04,VALID,1003.93,VALID,0,INVALID,163.693,VALID,0,VALID,24.7743,VALID,307,VALID,0,
2011-06-17, 01:21:04,VALID,1003.9,VALID,0,INVALID,163.693,VALID,0,VALID,24.7956,VALID,326,VALID,0,
2011-06-17, 01:22:04,VALID,1003.9,VALID,0,INVALID,163.685,VALID,0,VALID,24.7548,VALID,288,VALID,0,
2011-06-17, 01:23:04,VALID,1003.91,VALID,0,INVALID,163.678,VALID,0,VALID,24.7529,VALID,28,VALID,0,
2011-06-17, 01:24:04,VALID,1003.91,VALID,0,INVALID,163.678,VALID,0,VALID,24.7743,VALID,24,VALID,0,
2011-06-17, 01:25:04,VALID,1003.91,VALID,0,INVALID,163.685,VALID,0,VALID,24.7743,VALID,356,VALID,0,
2011-06-17, 01:26:04,VALID,1003.89,VALID,0.5,INVALID,163.678,VALID,0,VALID,24.7529,VALID,286,VALID,0,
2011-06-17, 01:27:04,VALID,1003.91,VALID,0,INVALID,163.708,VALID,0,VALID,24.7743,VALID,353,VALID,0,
2011-06-17, 01:28:04,VALID,1003.93,VALID,0,INVALID,163.678,VALID,0,VALID,24.7335,VALID,349,VALID,0,
2011-06-17, 01:29:04,VALID,1003.96,VALID,0,INVALID,163.701,VALID,0,VALID,24.7743,VALID,335,VALID,0,
2011-06-17, 01:30:04,VALID,1003.94,VALID,0,INVALID,163.693,VALID,0,VALID,24.7743,VALID,360,VALID,0,
2011-06-17, 01:31:04,VALID,1003.95,VALID,0,INVALID,163.701,VALID,0,VALID,24.7743,VALID,358,VALID,0,
2011-06-17, 01:32:04,VALID,1003.95,VALID,0,INVALID,163.67,VALID,0,VALID,24.7937,VALID,334,VALID,0,
2011-06-17, 01:33:04,VALID,1003.89,VALID,0,INVALID,163.693,VALID,0,VALID,24.7937,VALID,281,VALID,0,
2011-06-17, 01:34:04,VALID,1003.88,VALID,0,INVALID,163.693,VALID,0,VALID,24.8132,VALID,334,VALID,0,
2011-06-17, 01:35:04,VALID,1003.84,VALID,0,INVALID,163.701,VALID,0,VALID,24.7937,VALID,319,VALID,0,
2011-06-17, 01:36:04,VALID,1003.82,VALID,0,INVALID,163.685,VALID,0,VALID,24.8113,VALID,305,VALID,0,
2011-06-17, 01:37:04,VALID,1003.8,VALID,0,INVALID,163.701,VALID,0,VALID,24.8113,VALID,353,VALID,0,
2011-06-17, 01:38:04,VALID,1003.78,VALID,0,INVALID,163.685,VALID,0,VALID,24.8327,VALID,344,VALID,0,
2011-06-17, 01:39:04,VALID,1003.76,VALID,0,INVALID,163.655,VALID,0,VALID,24.8327,VALID,345,VALID,0,
2011-06-17, 01:40:04,VALID,1003.78,VALID,0,INVALID,163.693,VALID,0,VALID,24.8308,VALID,343,VALID,0,
2011-06-17, 01:41:04,VALID,1003.84,VALID,0,INVALID,163.678,VALID,0,VALID,24.8327,VALID,350,VALID,0,
2011-06-17, 01:42:04,VALID,1003.86,VALID,0,INVALID,163.67,VALID,0,VALID,24.8327,VALID,12,VALID,0,
2011-06-17, 01:43:04,VALID,1003.92,VALID,0,INVALID,163.655,VALID,0,VALID,24.8735,VALID,8,VALID,0,
2011-06-17, 01:44:04,VALID,1003.9,VALID,0,INVALID,163.67,VALID,0,VALID,24.8522,VALID,349,VALID,0,
2011-06-17, 01:45:04,VALID,1003.9,VALID,0,INVALID,163.693,VALID,0,VALID,24.8522,VALID,236,VALID,0,
2011-06-17, 01:46:04,VALID,1003.89,VALID,0,INVALID,163.693,VALID,0,VALID,24.8716,VALID,268,VALID,0,
2011-06-17, 01:47:04,VALID,1003.86,VALID,0,INVALID,163.67,VALID,0,VALID,24.8716,VALID,351,VALID,0,
2011-06-17, 01:48:04,VALID,1003.87,VALID,0,INVALID,163.662,VALID,0,VALID,24.93,VALID,348,VALID,0,
2011-06-17, 01:49:04,VALID,1003.86,VALID,0,INVALID,163.662,VALID,0,VALID,24.9671,VALID,360,VALID,0,
2011-06-17, 01:50:04,VALID,1003.86,VALID,0,INVALID,163.67,VALID,0,VALID,24.9885,VALID,347,VALID,0,
2011-06-17, 01:51:04,VALID,1003.9,VALID,0,INVALID,163.678,VALID,0,VALID,24.9671,VALID,347,VALID,0,
2011-06-17, 01:52:04,VALID,1003.85,VALID,0,INVALID,163.685,VALID,0,VALID,25.0079,VALID,321,VALID,0,
2011-06-17, 01:53:04,VALID,1003.84,VALID,0,INVALID,163.67,VALID,0,VALID,25.006,VALID,295,VALID,0,
2011-06-17, 01:54:04,VALID,1003.87,VALID,0,INVALID,163.685,VALID,0,VALID,25.0469,VALID,256,VALID,0,
2011-06-17, 01:55:04,VALID,1003.84,VALID,0,INVALID,163.685,VALID,0,VALID,25.0469,VALID,295,VALID,0,
2011-06-17, 01:56:04,VALID,1003.91,VALID,0,INVALID,163.67,VALID,0,VALID,25.0858,VALID,323,VALID,0,
2011-06-17, 01:57:04,VALID,1003.92,VALID,0,INVALID,163.67,VALID,0,VALID,25.0839,VALID,288,VALID,0,
2011-06-17, 01:58:04,VALID,1003.92,VALID,0,INVALID,163.662,VALID,0,VALID,25.1053,VALID,332,VALID,0,
2011-06-17, 01:59:04,VALID,1003.91,VALID,0,INVALID,163.639,VALID,0,VALID,25.1053,VALID,3,VALID,0,
2011-06-17, 02:00:04,VALID,1003.89,VALID,0,INVALID,163.647,VALID,0,VALID,25.1053,VALID,357,VALID,0,
2011-06-17, 02:01:04,VALID,1003.88,VALID,0,INVALID,163.693,VALID,0,VALID,25.1053,VALID,6,VALID,0,
2011-06-17, 02:02:04,VALID,1003.81,VALID,0,INVALID,163.662,VALID,0,VALID,25.1053,VALID,347,VALID,0,
2011-06-17, 02:03:04,VALID,1003.77,VALID,0,INVALID,163.693,VALID,0,VALID,25.0858,VALID,267,VALID,0,
2011-06-17, 02:04:04,VALID,1003.77,VALID,0,INVALID,163.647,VALID,0,VALID,25.045,VALID,300,VALID,0,
2011-06-17, 02:05:04,VALID,1003.71,VALID,0,INVALID,163.67,VALID,0,VALID,25.0663,VALID,2,VALID,0,
2011-06-17, 02:06:04,VALID,1003.71,VALID,0,INVALID,163.655,VALID,0,VALID,25.0858,VALID,292,VALID,0,
2011-06-17, 02:07:04,VALID,1003.67,VALID,0,INVALID,163.678,VALID,0,VALID,25.0839,VALID,264,VALID,0,
2011-06-17, 02:08:04,VALID,1003.69,VALID,0,INVALID,163.685,VALID,0,VALID,25.0839,VALID,273,VALID,0,
2011-06-17, 02:09:04,VALID,1003.68,VALID,0,INVALID,163.647,VALID,0,VALID,25.1248,VALID,321,VALID,0,
2011-06-17, 02:10:04,VALID,1003.71,VALID,0,INVALID,163.678,VALID,0,VALID,25.1442,VALID,358,VALID,0,
2011-06-17, 02:11:04,VALID,1003.69,VALID,0,INVALID,163.639,VALID,0,VALID,25.1637,VALID,346,VALID,0,
2011-06-17, 02:12:04,VALID,1003.7,VALID,0,INVALID,163.662,VALID,0,VALID,25.1442,VALID,2,VALID,0,
2011-06-17, 02:13:04,VALID,1003.67,VALID,0,INVALID,163.67,VALID,0,VALID,25.1442,VALID,345,VALID,0,
2011-06-17, 02:14:04,VALID,1003.7,VALID,0,INVALID,163.662,VALID,0,VALID,25.1423,VALID,329,VALID,0,
2011-06-17, 02:15:04,VALID,1003.67,VALID,0,INVALID,163.67,VALID,0,VALID,25.1423,VALID,338,VALID,0,
2011-06-17, 02:16:04,VALID,1003.66,VALID,0,INVALID,163.662,VALID,0,VALID,25.1423,VALID,350,VALID,0,
2011-06-17, 02:17:04,VALID,1003.67,VALID,0,INVALID,163.647,VALID,0,VALID,25.1423,VALID,351,VALID,0,
2011-06-17, 02:18:04,VALID,1003.66,VALID,0,INVALID,163.662,VALID,0,VALID,25.1229,VALID,359,VALID,0,
2011-06-17, 02:19:04,VALID,1003.68,VALID,0,INVALID,163.662,VALID,0,VALID,25.1637,VALID,290,VALID,0,
2011-06-17, 02:20:04,VALID,1003.65,VALID,0,INVALID,163.685,VALID,0,VALID,25.1832,VALID,268,VALID,0,
2011-06-17, 02:21:04,VALID,1003.67,VALID,0,INVALID,163.708,VALID,0,VALID,25.2027,VALID,263,VALID,0,
2011-06-17, 02:22:04,VALID,1003.67,VALID,0,INVALID,163.67,VALID,0,VALID,25.1618,VALID,263,VALID,0,
2011-06-17, 02:23:04,VALID,1003.65,VALID,0,INVALID,163.67,VALID,0,VALID,25.1618,VALID,268,VALID,0,
2011-06-17, 02:24:04,VALID,1003.63,VALID,0,INVALID,163.639,VALID,0,VALID,25.1832,VALID,7,VALID,0,
2011-06-17, 02:25:04,VALID,1003.64,VALID,0,INVALID,163.67,VALID,0,VALID,25.1832,VALID,319,VALID,0,
2011-06-17, 02:26:04,VALID,1003.59,VALID,0,INVALID,163.647,VALID,0,VALID,25.2027,VALID,266,VALID,0,
2011-06-17, 02:27:04,VALID,1003.58,VALID,0,INVALID,163.67,VALID,0,VALID,25.2007,VALID,299,VALID,0,
2011-06-17, 02:28:04,VALID,1003.62,VALID,0,INVALID,163.655,VALID,0.100563,VALID,25.2786,VALID,253,VALID,0,
2011-06-17, 02:29:04,VALID,1003.6,VALID,0,INVALID,163.655,VALID,0,VALID,25.3176,VALID,255,VALID,0,
2011-06-17, 02:30:04,VALID,1003.66,VALID,0,INVALID,163.655,VALID,0,VALID,25.339,VALID,278,VALID,0,
2011-06-17, 02:31:04,VALID,1003.63,VALID,0,INVALID,163.647,VALID,0,VALID,25.339,VALID,319,VALID,0,
2011-06-17, 02:32:04,VALID,1003.67,VALID,0,INVALID,163.647,VALID,0,VALID,25.3584,VALID,301,VALID,0,
2011-06-17, 02:33:04,VALID,1003.71,VALID,0,INVALID,163.685,VALID,0,VALID,25.337,VALID,325,VALID,0,
2011-06-17, 02:34:04,VALID,1003.73,VALID,0,INVALID,163.655,VALID,0,VALID,25.3565,VALID,276,VALID,0,
2011-06-17, 02:35:04,VALID,1003.75,VALID,0,INVALID,163.639,VALID,0.100563,VALID,25.3176,VALID,288,VALID,0,
2011-06-17, 02:36:04,VALID,1003.79,VALID,0,INVALID,163.647,VALID,0,VALID,25.3176,VALID,278,VALID,0,
2011-06-17, 02:37:04,VALID,1003.79,VALID,0,INVALID,163.647,VALID,0,VALID,25.3176,VALID,279,VALID,0,
2011-06-17, 02:38:04,VALID,1003.82,VALID,0,INVALID,163.67,VALID,0.100563,VALID,25.2981,VALID,343,VALID,0,
2011-06-17, 02:39:04,VALID,1003.85,VALID,0,INVALID,163.647,VALID,0,VALID,25.3176,VALID,342,VALID,0,
2011-06-17, 02:40:04,VALID,1003.83,VALID,0,INVALID,163.655,VALID,0,VALID,25.2981,VALID,1,VALID,0,
2011-06-17, 02:41:04,VALID,1003.88,VALID,0,INVALID,163.685,VALID,0,VALID,25.2981,VALID,350,VALID,0,
2011-06-17, 02:42:04,VALID,1003.85,VALID,0,INVALID,163.639,VALID,0.100563,VALID,25.2592,VALID,342,VALID,0,
2011-06-17, 02:43:04,VALID,1003.86,VALID,0,INVALID,163.632,VALID,0,VALID,25.2806,VALID,352,VALID,0,
2011-06-17, 02:44:04,VALID,1003.84,VALID,0,INVALID,163.67,VALID,0,VALID,25.2592,VALID,289,VALID,0,
2011-06-17, 02:45:04,VALID,1003.86,VALID,0,INVALID,163.655,VALID,0.100563,VALID,25.2767,VALID,348,VALID,0,
2011-06-17, 02:46:04,VALID,1003.91,VALID,0,INVALID,163.647,VALID,0.100563,VALID,25.2767,VALID,288,VALID,0,
2011-06-17, 02:47:04,VALID,1003.91,VALID,0,INVALID,163.678,VALID,0.100563,VALID,25.2962,VALID,349,VALID,0,
2011-06-17, 02:48:04,VALID,1003.92,VALID,0,INVALID,163.662,VALID,0.100563,VALID,25.2767,VALID,353,VALID,0,
2011-06-17, 02:49:04,VALID,1003.95,VALID,0,INVALID,163.624,VALID,0.100563,VALID,25.2962,VALID,343,VALID,0,
2011-06-17, 02:50:04,VALID,1003.99,VALID,0,INVALID,163.655,VALID,0.100563,VALID,25.3176,VALID,328,VALID,0,
2011-06-17, 02:51:04,VALID,1004.02,VALID,0,INVALID,163.647,VALID,0.100563,VALID,25.2962,VALID,300,VALID,0,
2011-06-17, 02:52:04,VALID,1004.04,VALID,0,INVALID,163.67,VALID,0.100563,VALID,25.3351,VALID,283,VALID,0,
2011-06-17, 02:53:04,VALID,1004.1,VALID,0,INVALID,163.655,VALID,0.100563,VALID,25.3955,VALID,284,VALID,0,
2011-06-17, 02:54:04,VALID,1004.12,VALID,0.5,INVALID,163.647,VALID,0.100563,VALID,25.3935,VALID,4,VALID,0,
2011-06-17, 02:55:04,VALID,1004.12,VALID,0,INVALID,163.662,VALID,0.100563,VALID,25.3935,VALID,318,VALID,0,
2011-06-17, 02:56:04,VALID,1004.17,VALID,0,INVALID,163.655,VALID,0.100563,VALID,25.413,VALID,292,VALID,0,
2011-06-17, 02:57:04,VALID,1004.23,VALID,0,INVALID,163.639,VALID,0.100563,VALID,25.413,VALID,255,VALID,0,
2011-06-17, 02:58:04,VALID,1004.25,VALID,0,INVALID,163.639,VALID,0.100563,VALID,25.4325,VALID,337,VALID,0,
2011-06-17, 02:59:04,VALID,1004.27,VALID,0,INVALID,163.639,VALID,0.100563,VALID,25.4325,VALID,284,VALID,0,
2011-06-17, 03:00:04,VALID,1004.35,VALID,0,INVALID,163.609,VALID,0,VALID,25.4344,VALID,279,VALID,0,
2011-06-17, 03:01:04,VALID,1004.38,VALID,0,INVALID,163.662,VALID,0,VALID,25.4149,VALID,267,VALID,0,
2011-06-17, 03:02:04,VALID,1004.43,VALID,0,INVALID,163.655,VALID,0,VALID,25.3779,VALID,291,VALID,0,
2011-06-17, 03:03:04,VALID,1004.44,VALID,0.5,INVALID,163.678,VALID,0,VALID,25.3195,VALID,292,VALID,0,
2011-06-17, 03:04:04,VALID,1004.46,VALID,0,INVALID,163.723,VALID,0,VALID,25.2806,VALID,316,VALID,0,
2011-06-17, 03:05:04,VALID,1004.46,VALID,0,INVALID,163.701,VALID,0,VALID,25.2611,VALID,320,VALID,0,
2011-06-17, 03:06:04,VALID,1004.49,VALID,0,INVALID,163.662,VALID,0,VALID,25.2221,VALID,322,VALID,0,
2011-06-17, 03:07:04,VALID,1004.45,VALID,0,INVALID,163.655,VALID,0,VALID,25.1637,VALID,326,VALID,0,
2011-06-17, 03:08:04,VALID,1004.49,VALID,0,INVALID,163.67,VALID,0,VALID,25.1034,VALID,337,VALID,0,
2011-06-17, 03:09:04,VALID,1004.46,VALID,0.5,INVALID,163.678,VALID,0.100563,VALID,25.1053,VALID,337,VALID,0,
2011-06-17, 03:10:04,VALID,1004.47,VALID,0,INVALID,163.678,VALID,0,VALID,25.0469,VALID,339,VALID,0,
2011-06-17, 03:11:04,VALID,1004.48,VALID,0,INVALID,163.67,VALID,0,VALID,25.0255,VALID,340,VALID,0,
2011-06-17, 03:12:04,VALID,1004.45,VALID,0,INVALID,163.67,VALID,0,VALID,25.0079,VALID,340,VALID,0,
2011-06-17, 03:13:04,VALID,1004.45,VALID,0,INVALID,163.708,VALID,0,VALID,24.969,VALID,318,VALID,0,
2011-06-17, 03:14:04,VALID,1004.45,VALID,0,INVALID,163.685,VALID,0,VALID,24.9671,VALID,237,VALID,0,
2011-06-17, 03:15:04,VALID,1004.45,VALID,0.5,INVALID,163.693,VALID,0,VALID,24.9671,VALID,165,VALID,0,
2011-06-17, 03:16:04,VALID,1004.44,VALID,0,INVALID,163.655,VALID,0,VALID,24.9866,VALID,165,VALID,0,
2011-06-17, 03:17:04,VALID,1004.41,VALID,0,INVALID,163.655,VALID,0.100563,VALID,24.9885,VALID,165,VALID,0,
2011-06-17, 03:18:04,VALID,1004.38,VALID,0,INVALID,163.685,VALID,0,VALID,24.9457,VALID,152,VALID,0,
2011-06-17, 03:19:04,VALID,1004.35,VALID,0,INVALID,163.655,VALID,0,VALID,25.0236,VALID,255,VALID,0,
2011-06-17, 03:20:04,VALID,1004.34,VALID,0,INVALID,163.701,VALID,0,VALID,25.0839,VALID,162,VALID,0,
2011-06-17, 03:21:04,VALID,1004.31,VALID,0,INVALID,163.67,VALID,0.100563,VALID,25.1229,VALID,257,VALID,0,
2011-06-17, 03:22:04,VALID,1004.3,VALID,0,INVALID,163.639,VALID,0,VALID,25.1599,VALID,294,VALID,0,
2011-06-17, 03:23:04,VALID,1004.3,VALID,0,INVALID,163.67,VALID,0.100563,VALID,25.2202,VALID,228,VALID,0,
2011-06-17, 03:24:04,VALID,1004.33,VALID,0.5,INVALID,163.655,VALID,0,VALID,25.2378,VALID,251,VALID,0,
2011-06-17, 03:25:04,VALID,1004.32,VALID,0,INVALID,163.639,VALID,0,VALID,25.2981,VALID,254,VALID,0,
2011-06-17, 03:26:04,VALID,1004.35,VALID,0,INVALID,163.67,VALID,0.100563,VALID,25.3,VALID,308,VALID,0,
2011-06-17, 03:27:04,VALID,1004.36,VALID,0,INVALID,163.662,VALID,0.100563,VALID,25.2202,VALID,236,VALID,0,
2011-06-17, 03:28:04,VALID,1004.36,VALID,0,INVALID,163.678,VALID,0,VALID,25.1618,VALID,269,VALID,0,
2011-06-17, 03:29:04,VALID,1004.35,VALID,0,INVALID,163.647,VALID,0,VALID,25.1248,VALID,238,VALID,0,
2011-06-17, 03:30:04,VALID,1004.38,VALID,0,INVALID,163.701,VALID,0,VALID,25.0644,VALID,291,VALID,0,
2011-06-17, 03:31:04,VALID,1004.39,VALID,0,INVALID,163.67,VALID,0.100563,VALID,25.0041,VALID,258,VALID,0,
2011-06-17, 03:32:04,VALID,1004.4,VALID,0,INVALID,163.708,VALID,0,VALID,24.9671,VALID,264,VALID,0,
2011-06-17, 03:33:04,VALID,1004.44,VALID,0,INVALID,163.693,VALID,0.100563,VALID,24.9087,VALID,297,VALID,0,
2011-06-17, 03:34:04,VALID,1004.46,VALID,0.5,INVALID,163.678,VALID,0.100563,VALID,24.8679,VALID,294,VALID,0,
2011-06-17, 03:35:04,VALID,1004.46,VALID,0,INVALID,163.678,VALID,0.100563,VALID,24.8484,VALID,299,VALID,0,
2011-06-17, 03:36:04,VALID,1004.43,VALID,0,INVALID,163.693,VALID,0.100563,VALID,24.8503,VALID,332,VALID,0,
2011-06-17, 03:37:04,VALID,1004.46,VALID,0,INVALID,163.693,VALID,0,VALID,24.8503,VALID,265,VALID,0,
2011-06-17, 03:38:04,VALID,1004.44,VALID,0,INVALID,163.769,VALID,0,VALID,24.8113,VALID,280,VALID,0,
2011-06-17, 03:39:04,VALID,1004.44,VALID,0,INVALID,163.746,VALID,0.100563,VALID,24.7919,VALID,271,VALID,0,
2011-06-17, 03:40:04,VALID,1004.44,VALID,0,INVALID,163.693,VALID,0.100563,VALID,24.7724,VALID,298,VALID,0,
2011-06-17, 03:41:04,VALID,1004.4,VALID,0,INVALID,163.647,VALID,0.100563,VALID,24.7743,VALID,315,VALID,0,
2011-06-17, 03:42:04,VALID,1004.42,VALID,0.5,INVALID,163.731,VALID,0.100563,VALID,24.7121,VALID,249,VALID,0,
2011-06-17, 03:43:04,VALID,1004.41,VALID,0,INVALID,163.662,VALID,0,VALID,24.7335,VALID,270,VALID,0,
2011-06-17, 03:44:04,VALID,1004.4,VALID,0,INVALID,163.746,VALID,0.100563,VALID,24.6732,VALID,298,VALID,0,
2011-06-17, 03:45:04,VALID,1004.41,VALID,0,INVALID,163.739,VALID,0,VALID,24.6964,VALID,283,VALID,0,
2011-06-17, 03:46:04,VALID,1004.39,VALID,0,INVALID,163.701,VALID,0,VALID,24.6769,VALID,306,VALID,0,
2011-06-17, 03:47:04,VALID,1004.4,VALID,0,INVALID,163.708,VALID,0,VALID,24.6769,VALID,327,VALID,0,
2011-06-17, 03:48:04,VALID,1004.44,VALID,0,INVALID,163.716,VALID,0,VALID,24.675,VALID,321,VALID,0,
2011-06-17, 03:49:04,VALID,1004.43,VALID,0,INVALID,163.739,VALID,0,VALID,24.7159,VALID,282,VALID,0,
2011-06-17, 03:50:04,VALID,1004.44,VALID,0,INVALID,163.693,VALID,0,VALID,24.7353,VALID,287,VALID,0,
2011-06-17, 03:51:04,VALID,1004.49,VALID,0,INVALID,163.685,VALID,0,VALID,24.7743,VALID,309,VALID,0,